LARES

Last updated on Thu Nov 21 2024 00:03:28 GMT+0000 (Coordinated Universal Time)

1 38077U 12006A 24325.03678294 -.00000033 00000+0 33857-4 0 9995 2 38077 69.4897 192.9490 0010867 233.6372 126.3652 12.54931884585033
UTC large
Height (km)
Speed (km/s)
/
Latitude / Longitude
Inclination (degrees)
Orbital Period (minutes)
Azimuth
Elevation
Range (km)
Doppler Factor

Next 0 passes for location: London (51.5072 / 0.1276)

Sorry there are no passes over London.